"Pseudo-MPEC" for J123201

Created 2021 Jan 14 11:07:15 UT using Find_Orb

Click here for an explanation of pseudo-MPECs

 
 Astrometry: 
     J123201  C2021 01 04.25322105 57 25.87 +23 55 42.1    ~1E87 20.97GVNEOCPG96
     J123201  C2021 01 04.26370005 57 24.89 +23 56 01.4    ~1E87 20.87GVNEOCPG96
     J123201  C2021 01 04.26894305 57 24.40 +23 56 10.8    ~1E87 21.13GVNEOCPG96
     J123201  C2021 01 08.25892 05 51 39.59 +26 10 39.9    ~1E87 20.7 GVNEOCPG96
     J123201  C2021 01 08.26412 05 51 39.07 +26 10 51.8    ~1E87 21.0 GVNEOCPG96
     J123201 KC2021 01 13b9vc7X01/PattblNJPKopNy6uD#kf*HuS+i5Yd0uV8Fa=o1kn!AlW16
     J123201 KC2021 01 13$2oD=g:eAstrometrybmEHei]ySmtc_tredacted;J#i5H86i^;VW16
     J123201 KC2021 01 13S9MAT8]!7+gif36:wP5!S$7UpMEUBUb\(]6tA71XlIx%`9VjNXC,W16
     J123201 KC2021 01 13oxWvwf?R(U4fE.a6tAIfkGkclick+:HuBZr))p:%HxT.-iNRwiCqW16
     J123201 KC2021 01 131l]Vm)a.+6*e.3nXMM-[p3JD@!hcsS/0/mJdx:ocH(1Z09;=?v3,W16
     J123201 KC2021 01 132UTiN-R9pU,t?+4hH6q4p[M1xlafR;xYqRy9Ul/0y))^qr`aCt1$W16
     J123201 KC2021 01 14GwVm^BTthereY%[$?jq(Je^b6VHwSC/WD,glDdlx8%#?:\8+Su+WW16
     J123201 KC2021 01 14:C?QSgN,d]=cC+UhI!@aZDtZs%gHeDb.c9b*hHo%f2#KAktB1[V/W16
     J123201 KC2021 01 14Pi5VV]uE]=9E[nK`4]=_$.Yt:V)V,ME)\7^\OUutWVB(pVe4oCvNW16
     J123201 KC2021 01 14CpCyTy`'yd5nqCXFqiVnr'$7ot[kHXkXpErQxN;3v_?P+k?97C=)W16
     J123201 KC2021 01 1487]:vy_.o^6U$Q4cKdHp)d/ua$SrB72r6K'`d-`VXHjAMTDC^b,YW16
     J123201 KC2021 01 14J27W*3np+_v2E`t_:js8,n?;8yUH2forY5#6s6+jAj@.iZ(NtrDGW16
     J123201 !C2021 01 14e+*F.GEcexplanationo1v^43XJrEBS+V[3P.2Rs=H#cV$btNsp2673
     J123201 !C2021 01 14a]DeUF0qBVxSD)aV54s]l\mpDgDq81XOUC+V-VR%g+Y1h@A#/:`!673

Station data:
(673) Table Mountain Observatory, Wrightwood  (N34.381488 W117.682170)
   US/California.  Observer W. M. Owen Jr. 0.61-m f/16 reflector + CCD.
(G96) Mt. Lemmon Survey  (N32.442754 W110.788720)  US/Arizona.  Observers T.
   A. Pruyne, B. M. Africano, E. J. Christensen, G. A. Farneth, D. C. Fuls,
   A. R. Gibbs, A. D. Grauer, H. Gröller, J. A. Johnson, R. A. Kowalski, S.
   M. Larson, G. J. Leonard, D. Rankin, R. L. Seaman, F. C. Shelly. 1.5-m
   reflector + 10K CCD.
(W16) Pleasant Groves Observatory  (N34.711891 W86.231310)  US/Alabama.

Orbital elements:  J123201
   Perihelion 2021 Feb 28.970759 +/- 0.00207103 TT = 23:17:53 (JD 2459274.470759)
Epoch 2021 Jan 14.0 TT = JDT 2459228.5   Earth MOID: 0.0757   Ju: 0.4951
M 350.63354771 +/- 0.0662625        Ma: 0.0958                AutoNEOCP
n   0.20374804 +/- 0.00144765       Peri.   63.88347 +/- 0.0128459
a   2.86027034 +/- 0.0135467        Node   100.07818 +/- 0.0048664
e   0.6636908 +/- 0.00161255        Incl.    7.11492 +/- 0.0164184
P   4.84                   H 22.6   G  0.15   U  8.4  
q 0.96193496 +/- 5.95085e-5    Q 4.75860572 +/- 0.0274602
From 19 observations 2021 Jan. 4-14; mean residual 0".30
Residuals in arcseconds: 
210104 G96  .01+  .07-    210113 W16  .04+  .36-    210114 W16  .09-  .06+    
210104 G96  .04+  .18+    210113 W16  .79+  .90+    210114 W16  .04+  .26-    
210104 G96  .06+  .06+    210113 W16  .50+  .23-    210114 W16  .10+  .05-    
210108 G96  .39-  .30-    210113 W16  .52-  .06-    210114 673  .03-  .03-    
210108 G96  .17+  .05-    210114 W16  .17-  .47+    210114 673  .13+  .17-    
210113 W16  .30+  .37+    210114 W16  .19+  .07-    
210113 W16  .17+  .43+    210114 W16  .28-  .28-    

Ephemerides (geocentric):
Date (UTC) HH   RA              Dec         delta   r     elong  mag " sig PA
---- -- -- --  -------------   -----------  ------ ------ -----  --- ---- ---
2021 01 14 11  05 40 57.745   +30 46 03.43  .18870 1.1520 150.8 20.4 .036  13
2021 01 14 12  05 40 52.928   +30 48 14.34  .18846 1.1517 150.7 20.4 .040  19
2021 01 14 13  05 40 48.103   +30 50 25.54  .18822 1.1514 150.7 20.4 .045  24
2021 01 14 14  05 40 43.270   +30 52 37.05  .18798 1.1511 150.6 20.4 .050  28
2021 01 14 15  05 40 38.430   +30 54 48.86  .18774 1.1508 150.5 20.4 .055  31
2021 01 14 16  05 40 33.583   +30 57 00.97  .18750 1.1505 150.5 20.4 .061  34
2021 01 14 17  05 40 28.727   +30 59 13.38  .18727 1.1502 150.4 20.4 .067  37
2021 01 14 18  05 40 23.864   +31 01 26.10  .18703 1.1499 150.3 20.4 .072  39
2021 01 14 19  05 40 18.994   +31 03 39.12  .18679 1.1496 150.3 20.4 .078  40
2021 01 14 20  05 40 14.115   +31 05 52.45  .18655 1.1493 150.2 20.4 .085  42
2021 01 14 21  05 40 09.229   +31 08 06.08  .18631 1.1490 150.1 20.4 .091  43
2021 01 14 22  05 40 04.335   +31 10 20.02  .18608 1.1487 150.1 20.4 .097  44
2021 01 14 23  05 39 59.433   +31 12 34.27  .18584 1.1484 150.0 20.4 .104  45
2021 01 15 00  05 39 54.524   +31 14 48.82  .18560 1.1481 149.9 20.4 .110  46
2021 01 15 01  05 39 49.606   +31 17 03.69  .18537 1.1478 149.9 20.4 .117  47
2021 01 15 02  05 39 44.681   +31 19 18.87  .18513 1.1475 149.8 20.4 .124  48
2021 01 15 03  05 39 39.748   +31 21 34.35  .18490 1.1472 149.7 20.4 .130  49
2021 01 15 04  05 39 34.806   +31 23 50.15  .18466 1.1469 149.7 20.4 .137  49
2021 01 15 05  05 39 29.857   +31 26 06.26  .18442 1.1465 149.6 20.4 .144  50
2021 01 15 06  05 39 24.900   +31 28 22.69  .18419 1.1462 149.5 20.4 .152  50
2021 01 15 07  05 39 19.935   +31 30 39.43  .18395 1.1459 149.5 20.4 .159  51
2021 01 15 08  05 39 14.962   +31 32 56.48  .18372 1.1456 149.4 20.4 .166  51
2021 01 15 09  05 39 09.980   +31 35 13.85  .18348 1.1453 149.3 20.3 .173  51
2021 01 15 10  05 39 04.991   +31 37 31.54  .18325 1.1450 149.3 20.3 .181  52
2021 01 15 11  05 38 59.993   +31 39 49.54  .18301 1.1447 149.2 20.3 .188  52
2021 01 15 12  05 38 54.988   +31 42 07.87  .18278 1.1444 149.2 20.3 .196  52
2021 01 15 13  05 38 49.974   +31 44 26.51  .18255 1.1441 149.1 20.3 .204  53
2021 01 15 14  05 38 44.952   +31 46 45.47  .18231 1.1438 149.0 20.3 .212  53
2021 01 15 15  05 38 39.922   +31 49 04.75  .18208 1.1435 149.0 20.3 .219  53
2021 01 15 16  05 38 34.883   +31 51 24.36  .18184 1.1432 148.9 20.3 .227  54
2021 01 15 17  05 38 29.836   +31 53 44.28  .18161 1.1429 148.8 20.3 .235  54
2021 01 15 18  05 38 24.781   +31 56 04.53  .18138 1.1426 148.8 20.3 .244  54
2021 01 15 19  05 38 19.717   +31 58 25.11  .18115 1.1423 148.7 20.3 .252  54
2021 01 15 20  05 38 14.645   +32 00 46.01  .18091 1.1420 148.6 20.3 .260  54
2021 01 15 21  05 38 09.565   +32 03 07.23  .18068 1.1417 148.6 20.3 .268  54
2021 01 15 22  05 38 04.476   +32 05 28.79  .18045 1.1414 148.5 20.3 .277  55
2021 01 15 23  05 37 59.379   +32 07 50.67  .18022 1.1411 148.4 20.3 .285  55
2021 01 16 00  05 37 54.273   +32 10 12.87  .17998 1.1408 148.4 20.3 .294  55
2021 01 16 01  05 37 49.158   +32 12 35.41  .17975 1.1405 148.3 20.3 .303  55
2021 01 16 02  05 37 44.035   +32 14 58.28  .17952 1.1402 148.2 20.3 .311  55
2021 01 16 03  05 37 38.904   +32 17 21.48  .17929 1.1399 148.2 20.3 .320  55
2021 01 16 04  05 37 33.763   +32 19 45.01  .17906 1.1396 148.1 20.3 .329  55
2021 01 16 05  05 37 28.614   +32 22 08.87  .17883 1.1393 148.0 20.3 .338  56
2021 01 16 06  05 37 23.457   +32 24 33.07  .17860 1.1391 148.0 20.3 .347  56
2021 01 16 07  05 37 18.290   +32 26 57.60  .17837 1.1388 147.9 20.3 .357  56
2021 01 16 08  05 37 13.115   +32 29 22.47  .17814 1.1385 147.8 20.3 .366  56
2021 01 16 09  05 37 07.931   +32 31 47.67  .17791 1.1382 147.8 20.3 .375  56
2021 01 16 10  05 37 02.738   +32 34 13.21  .17768 1.1379 147.7 20.3 .385  56